Cloud_Cover
0 0 0 0 0 0 0 8 100 61 18 48 46 85 100 100 100 100 100 100 100 99 100 100 100 100 100 95 53 62 88 5 0 0 0 0 0 0 0 0 0 0 0
0 0 0 0 0 0 2 100 89 26 4 6 0 1 72 100 100 100 100 100 100 73 66 100 100 100 99 85 5 5 2 0 0 0 0 0 0 0 0 0 0 0 0
0 0 0 0 0 0 13 100 48 24 28 39 1 4 100 100 100 100 100 100 85 75 62 76 97 65 95 68 5 5 5 5 0 0 0 0 0 0 0 0 0 0 0
0 0 0 0 0 0 10 100 51 27 60 74 5 11 83 46 99 100 100 92 5 34 61 92 5 66 68 5 5 16 5 5 0 0 0 0 0 0 3 0 0 0 2
0 0 0 0 0 0 0 43 60 64 65 82 66 17 100 97 93 100 100 0 4 5 5 5 9 85 30 5 5 5 5 0 0 0 0 0 0 0 0 0 1 5 5
0 0 0 0 1 3 4 0 49 98 100 96 100 83 100 100 100 100 36 0 0 4 1 5 79 67 25 5 25 5 0 0 0 0 0 0 0 0 0 0 0 0 0
0 0 0 0 5 6 5 0 0 41 99 25 95 100 100 99 88 25 0 0 1 1 4 6 70 11 5 19 19 0 0 0 0 0 0 0 0 4 5 2 0 0 0
0 0 0 0 5 18 5 0 5 0 88 16 99 100 100 44 100 2 0 5 1 2 5 5 6 5 4 3 0 0 0 0 0 0 0 0 5 5 5 0 0 0 0
5 0 0 0 6 5 10 5 5 0 4 100 100 100 100 100 58 5 5 5 4 5 5 5 5 5 5 5 0 0 0 0 0 0 5 5 5 0 0 0 0 0 0
5 5 5 0 5 5 5 5 5 4 96 100 100 100 99 46 22 63 10 5 5 5 5 5 5 5 5 5 5 0 0 0 1 1 4 3 2 0 0 0 0 0 5
6 5 5 3 24 7 5 5 16 93 100 100 88 22 5 72 94 92 77 76 34 5 57 5 5 5 5 5 5 1 5 5 5 5 5 3 0 4 0 0 0 4 5
0 5 5 5 5 5 5 79 100 100 100 86 5 5 49 91 66 76 88 100 41 70 56 15 5 5 5 5 5 5 5 5 5 5 0 1 5 5 0 0 0 5 5
0 3 38 9 5 8 37 94 100 100 100 92 97 80 98 100 77 72 100 64 82 74 82 21 5 5 5 5 3 5 5 5 2 0 5 2 1 0 0 3 5 5 38
0 2 5 5 5 28 84 100 100 100 86 95 100 100 100 100 82 71 35 92 100 94 10 5 5 15 26 5 5 5 3 0 1 5 2 0 0 0 5 19 77 99 85
4 5 13 5 15 63 99 100 100 94 95 100 100 100 100 100 22 5 95 100 74 57 20 38 26 78 5 5 3 0 0 4 5 0 0 0 0 5 15 97 98 98 89
98 31 11 79 32 26 63 77 92 100 32 5 99 100 100 65 5 99 95 57 51 59 72 47 100 8 4 0 0 0 5 2 5 0 0 0 0 5 31 42 84 98 100
76 72 66 88 6 8 65 62 5 9 24 77 100 89 44 31 100 94 67 55 76 80 70 95 5 0 0 0 4 5 5 5 0 0 2 5 5 4 5 9 88 100 79
78 82 99 86 97 100 100 100 100 100 100 100 100 100 75 100 87 73 86 93 78 87 40 4 0 0 2 5 5 4 5 5 5 5 5 5 5 19 100 100 100 54 7
100 100 99 100 100 100 100 100 100 100 100 100 100 100 100 96 95 99 71 63 73 5 1 0 0 5 5 4 0 5 5 5 5 2 5 5 98 100 100 100 35 96 38
100 100 100 100 100 100 100 100 100 100 100 100 100 100 100 99 60 51 69 5 5 0 0 1 5 5 3 0 5 5 10 60 31 99 100 46 100 100 100 100 99 95 5
100 100 100 100 100 100 100 100 100 100 100 100 100 85 66 48 52 12 5 4 2 1 5 5 4 0 0 4 5 5 22 92 99 100 100 69 78 100 100 100 64 45 100
100 100 100 100 100 100 100 100 100 94 99 99 87 63 45 35 5 5 5 5 5 5 5 4 1 3 0 0 4 7 93 100 100 98 58 53 100 98 58 21 94 100 97
100 100 100 100 100 100 100 100 100 100 100 100 100 70 32 55 5 5 5 5 5 2 0 1 4 1 0 0 0 5 45 84 100 42 99 91 71 5 5 43 80 86 80
100 100 100 100 100 100 100 100 100 100 100 100 100 100 86 5 5 5 5 1 0 0 0 0 1 3 5 5 7 26 8 81 48 84 77 5 4 5 5 13 9 70 99
100 100 100 100 100 100 100 100 100 100 100 96 56 19 5 5 5 4 2 0 0 0 3 1 4 5 5 12 92 94 97 100 100 100 19 5 5 14 27 31 68 100 97
100 100 100 100 100 100 100 100 100 96 26 5 2 5 5 5 5 5 2 0 0 0 0 0 5 5 5 61 97 100 100 100 97 69 5 34 77 97 100 100 98 100 100